| time (UTC) | temp F | wind direction | speed knots | gust knots | rain 1hr in | rain 24hr in | rain mn in | humidity % | barometer mb |
| 20260505051436 | 54 | 180 | 0.0 | 0.9 | 0.00 | 0.00 | 0.00 | 90 | 1011.5 |
| 20260505051204 | 54 | 180 | 0.9 | 0.9 | 0.00 | 0.00 | 0.00 | 89 | 1011.5 |
| 20260505050431 | 54 | 180 | 0.9 | 1.7 | 0.00 | 0.00 | 0.00 | 89 | 1011.4 |
| 20260505041427 | 56 | 180 | 0.0 | 0.0 | 0.00 | 0.00 | 0.00 | 85 | 1011.3 |
| 20260505040922 | 56 | 180 | 0.0 | 0.0 | 0.00 | 0.00 | 0.00 | 84 | 1011.3 |
| 20260505040650 | 56 | 180 | 0.0 | 0.9 | 0.00 | 0.00 | 0.00 | 83 | 1011.3 |
| 20260505035915 | 57 | 180 | 0.0 | 0.9 | 0.00 | 0.00 | 0.00 | 83 | 1011.3 |
| 20260505035417 | 57 | 197 | 0.0 | 1.7 | 0.00 | 0.00 | 0.00 | 81 | 1011.3 |
| 20260505034915 | 58 | 197 | 0.0 | 1.7 | 0.00 | 0.00 | 0.00 | 81 | 1011.4 |
| 20260505034416 | 58 | 208 | 0.0 | 1.7 | 0.00 | 0.00 | 0.00 | 80 | 1011.4 |
| 20260505033916 | 58 | 237 | 0.0 | 0.0 | 0.00 | 0.00 | 0.00 | 80 | 1011.5 |
| 20260505033416 | 58 | 237 | 0.0 | 0.0 | 0.00 | 0.00 | 0.00 | 80 | 1011.4 |
| 20260505033147 | 59 | 237 | 0.0 | 0.0 | 0.00 | 0.00 | 0.00 | 79 | 1011.4 |
| 20260505032416 | 59 | 237 | 0.0 | 0.0 | 0.00 | 0.00 | 0.00 | 78 | 1011.4 |
| 20260505031909 | 60 | 237 | 0.0 | 0.0 | 0.00 | 0.00 | 0.00 | 77 | 1011.4 |
| 20260505031410 | 60 | 237 | 0.0 | 0.0 | 0.00 | 0.00 | 0.00 | 77 | 1011.4 |
| 20260505030907 | 60 | 237 | 0.0 | 0.0 | 0.00 | 0.00 | 0.00 | 77 | 1011.6 |
| 20260505030407 | 60 | 237 | 0.0 | 0.0 | 0.00 | 0.00 | 0.00 | 76 | 1011.4 |
| 20260505025906 | 61 | 237 | 0.0 | 0.0 | 0.00 | 0.00 | 0.00 | 75 | 1011.5 |
| 20260505025404 | 61 | 237 | 0.0 | 1.7 | 0.00 | 0.00 | 0.00 | 74 | 1011.5 |
| 20260505024903 | 62 | 237 | 0.9 | 2.6 | 0.00 | 0.00 | 0.00 | 74 | 1011.6 |
| 20260505024404 | 62 | 239 | 0.9 | 2.6 | 0.00 | 0.00 | 0.00 | 74 | 1011.8 |
| 20260505023904 | 62 | 224 | 0.0 | 2.6 | 0.00 | 0.00 | 0.00 | 73 | 1011.8 |
| 20260505023403 | 62 | 238 | 0.0 | 0.0 | 0.00 | 0.00 | 0.00 | 73 | 1011.8 |
| 20260505022904 | 62 | 238 | 0.0 | 0.0 | 0.00 | 0.00 | 0.00 | 73 | 1011.8 |
| 20260505022402 | 62 | 238 | 0.0 | 0.0 | 0.00 | 0.00 | 0.00 | 72 | 1011.7 |
| 20260505021901 | 62 | 238 | 0.0 | 0.0 | 0.00 | 0.00 | 0.00 | 72 | 1011.6 |
| 20260505021401 | 63 | 238 | 0.0 | 0.0 | 0.00 | 0.00 | 0.00 | 71 | 1011.7 |
| 20260505020900 | 63 | 238 | 0.0 | 0.0 | 0.00 | 0.00 | 0.00 | 71 | 1011.6 |
| 20260505020400 | 63 | 238 | 0.0 | 1.7 | 0.00 | 0.00 | 0.00 | 71 | 1011.7 |
| 20260505015900 | 63 | 238 | 0.0 | 1.7 | 0.00 | 0.00 | 0.00 | 70 | 1011.7 |
| 20260505015359 | 63 | 238 | 0.0 | 0.9 | 0.00 | 0.00 | 0.00 | 70 | 1011.7 |
| 20260505014857 | 63 | 238 | 0.0 | 1.7 | 0.00 | 0.00 | 0.00 | 69 | 1011.7 |
| 20260505014358 | 64 | 238 | 0.0 | 2.6 | 0.00 | 0.00 | 0.00 | 69 | 1011.7 |
| 20260505013858 | 64 | 237 | 0.0 | 2.6 | 0.00 | 0.00 | 0.00 | 68 | 1011.6 |
| 20260505013356 | 64 | 249 | 0.9 | 2.6 | 0.00 | 0.00 | 0.00 | 68 | 1011.5 |
| 20260505012855 | 64 | 237 | 0.9 | 2.6 | 0.00 | 0.00 | 0.00 | 67 | 1011.4 |
| 20260505012355 | 65 | 227 | 0.9 | 2.6 | 0.00 | 0.00 | 0.00 | 67 | 1011.3 |
| 20260505011855 | 65 | 232 | 0.9 | 1.7 | 0.00 | 0.00 | 0.00 | 67 | 1011.3 |
| 20260505011354 | 65 | 230 | 0.0 | 1.7 | 0.00 | 0.00 | 0.00 | 66 | 1011.2 |
| 20260505010852 | 65 | 219 | 0.0 | 1.7 | 0.00 | 0.00 | 0.00 | 65 | 1011.2 |
| 20260505010648 | 65 | 240 | 0.0 | 1.7 | 0.00 | 0.00 | 0.00 | 65 | 1011.0 |
| 20260505010130 | 66 | 234 | 0.0 | 1.7 | 0.00 | 0.00 | 0.00 | 64 | 1011.0 |
| 20260505005350 | 66 | 234 | 0.0 | 1.7 | 0.00 | 0.00 | 0.00 | 63 | 1010.9 |
| 20260505004833 | 67 | 231 | 0.9 | 2.6 | 0.00 | 0.00 | 0.00 | 62 | 1010.9 |
| 20260505004351 | 67 | 238 | 1.7 | 4.3 | 0.00 | 0.00 | 0.00 | 61 | 1010.9 |
| 20260505004052 | 68 | 253 | 1.7 | 5.2 | 0.00 | 0.00 | 0.00 | 60 | 1010.9 |
| 20260505003320 | 68 | 243 | 2.6 | 5.2 | 0.00 | 0.00 | 0.00 | 60 | 1010.9 |
| 20260505002820 | 68 | 223 | 2.6 | 8.7 | 0.00 | 0.00 | 0.00 | 59 | 1010.8 |
| 20260505002328 | 68 | 243 | 2.6 | 8.7 | 0.00 | 0.00 | 0.00 | 59 | 1010.7 |
| 20260505001823 | 69 | 213 | 3.5 | 8.7 | 0.00 | 0.00 | 0.00 | 58 | 1010.7 |
| 20260505000839 | 69 | 237 | 6.1 | 14.8 | 0.00 | 0.00 | 0.00 | 56 | 1010.9 |
| 20260505000337 | 70 | 249 | 6.1 | 14.8 | 0.00 | 0.00 | 0.00 | 54 | 1010.9 |
| 20260504235819 | 71 | 227 | 4.3 | 14.8 | 0.00 | 0.00 | 0.00 | 53 | 1010.9 |
| 20260504235332 | 72 | 188 | 2.6 | 12.2 | 0.00 | 0.00 | 0.00 | 51 | 1011.0 |
| 20260504234844 | 73 | 242 | 1.7 | 6.1 | 0.00 | 0.00 | 0.00 | 48 | 1010.7 |
| 20260504234324 | 73 | 288 | 0.9 | 5.2 | 0.00 | 0.00 | 0.00 | 48 | 1010.6 |
| 20260504233822 | 73 | 223 | 0.9 | 3.5 | 0.00 | 0.00 | 0.00 | 48 | 1010.5 |
| 20260504233318 | 73 | 236 | 1.7 | 3.5 | 0.00 | 0.00 | 0.00 | 47 | 1010.5 |
| 20260504232852 | 73 | 210 | 2.6 | 6.1 | 0.00 | 0.00 | 0.00 | 46 | 1010.4 |
| 20260504232308 | 73 | 249 | 3.5 | 7.8 | 0.00 | 0.00 | 0.00 | 46 | 1010.4 |
| 20260504231802 | 74 | 230 | 3.5 | 7.8 | 0.00 | 0.00 | 0.00 | 46 | 1010.3 |
| 20260504231301 | 74 | 244 | 3.5 | 7.0 | 0.00 | 0.00 | 0.00 | 45 | 1010.2 |
| 20260504230753 | 74 | 227 | 3.5 | 6.1 | 0.00 | 0.00 | 0.00 | 45 | 1010.1 |
| 20260504230244 | 74 | 240 | 3.5 | 10.4 | 0.00 | 0.00 | 0.00 | 45 | 1010.2 |
| 20260504230015 | 74 | 242 | 3.5 | 10.4 | 0.00 | 0.00 | 0.00 | 46 | 1010.1 |
| 20260504225229 | 74 | 224 | 2.6 | 6.1 | 0.00 | 0.00 | 0.00 | 44 | 1010.2 |
| 20260504224722 | 74 | 232 | 2.6 | 7.0 | 0.00 | 0.00 | 0.00 | 45 | 1010.2 |
| 20260504224219 | 74 | 224 | 4.3 | 9.6 | 0.00 | 0.00 | 0.00 | 45 | 1010.2 |
| 20260504223720 | 74 | 242 | 5.2 | 12.2 | 0.00 | 0.00 | 0.00 | 44 | 1010.3 |
| 20260504223219 | 74 | 236 | 4.3 | 12.2 | 0.00 | 0.00 | 0.00 | 44 | 1010.3 |
| 20260504222720 | 74 | 215 | 4.3 | 10.4 | 0.00 | 0.00 | 0.00 | 44 | 1010.2 |
| 20260504222219 | 75 | 211 | 4.3 | 10.4 | 0.00 | 0.00 | 0.00 | 44 | 1010.2 |
| 20260504221719 | 75 | 183 | 3.5 | 10.4 | 0.00 | 0.00 | 0.00 | 43 | 1010.2 |
| 20260504221221 | 75 | 245 | 4.3 | 10.4 | 0.00 | 0.00 | 0.00 | 44 | 1010.1 |
| 20260504220220 | 75 | 247 | 4.3 | 13.9 | 0.00 | 0.00 | 0.00 | 43 | 1010.0 |
| 20260504215720 | 75 | 286 | 6.1 | 16.5 | 0.00 | 0.00 | 0.00 | 45 | 1010.2 |
| 20260504215220 | 74 | 208 | 7.0 | 16.5 | 0.00 | 0.00 | 0.00 | 44 | 1010.1 |
| 20260504214719 | 74 | 239 | 6.1 | 13.9 | 0.00 | 0.00 | 0.00 | 45 | 1010.2 |
| 20260504214220 | 74 | 228 | 4.3 | 13.9 | 0.00 | 0.00 | 0.00 | 44 | 1010.3 |
| 20260504213719 | 74 | 264 | 5.2 | 13.9 | 0.00 | 0.00 | 0.00 | 45 | 1010.1 |
| 20260504213212 | 75 | 236 | 4.3 | 12.2 | 0.00 | 0.00 | 0.00 | 44 | 1010.2 |
| 20260504212707 | 75 | 247 | 4.3 | 13.9 | 0.00 | 0.00 | 0.00 | 44 | 1010.3 |
| 20260504212203 | 76 | 271 | 4.3 | 13.9 | 0.00 | 0.00 | 0.00 | 44 | 1010.2 |
| 20260504211703 | 76 | 252 | 4.3 | 13.0 | 0.00 | 0.00 | 0.00 | 43 | 1010.2 |
| 20260504211206 | 76 | 260 | 4.3 | 13.0 | 0.00 | 0.00 | 0.00 | 42 | 1010.2 |
| 20260504210934 | 76 | 234 | 3.5 | 10.4 | 0.00 | 0.00 | 0.00 | 42 | 1010.1 |
| 20260504210203 | 76 | 295 | 4.3 | 10.4 | 0.00 | 0.00 | 0.00 | 41 | 1010.0 |
| 20260504205703 | 76 | 139 | 4.3 | 10.4 | 0.00 | 0.00 | 0.00 | 41 | 1010.0 |
| 20260504205203 | 76 | 229 | 5.2 | 13.9 | 0.00 | 0.00 | 0.00 | 41 | 1010.0 |
| 20260504204703 | 76 | 224 | 5.2 | 13.9 | 0.00 | 0.00 | 0.00 | 42 | 1010.0 |
| 20260504204203 | 76 | 159 | 6.1 | 14.8 | 0.00 | 0.00 | 0.00 | 43 | 1010.1 |
| 20260504203703 | 75 | 144 | 7.0 | 14.8 | 0.00 | 0.00 | 0.00 | 44 | 1010.2 |
| 20260504203204 | 75 | 231 | 5.2 | 13.9 | 0.00 | 0.00 | 0.00 | 42 | 1010.3 |
| 20260504202705 | 75 | 213 | 6.1 | 14.8 | 0.00 | 0.00 | 0.00 | 43 | 1010.3 |
| 20260504202435 | 74 | 216 | 7.0 | 14.8 | 0.00 | 0.00 | 0.00 | 45 | 1010.5 |
| 20260504201658 | 74 | 199 | 6.1 | 13.0 | 0.00 | 0.00 | 0.00 | 42 | 1010.6 |
| 20260504201153 | 75 | 249 | 4.3 | 13.0 | 0.00 | 0.00 | 0.00 | 43 | 1010.5 |
| 20260504200654 | 76 | 240 | 4.3 | 13.9 | 0.00 | 0.00 | 0.00 | 42 | 1010.6 |
| 20260504200424 | 76 | 265 | 5.2 | 13.9 | 0.00 | 0.00 | 0.00 | 43 | 1010.6 |
| 20260504195654 | 75 | 211 | 5.2 | 13.9 | 0.00 | 0.00 | 0.00 | 42 | 1010.6 |
| 20260504195159 | 75 | 258 | 6.1 | 13.9 | 0.00 | 0.00 | 0.00 | 40 | 1010.7 |
| 20260504194658 | 75 | 249 | 6.1 | 12.2 | 0.00 | 0.00 | 0.00 | 41 | 1010.8 |
| 20260504194158 | 75 | 213 | 6.1 | 12.2 | 0.00 | 0.00 | 0.00 | 43 | 1010.8 |
| 20260504193653 | 74 | 227 | 5.2 | 12.2 | 0.00 | 0.00 | 0.00 | 42 | 1010.9 |
| 20260504193200 | 75 | 252 | 3.5 | 12.2 | 0.00 | 0.00 | 0.00 | 40 | 1010.9 |
| 20260504192653 | 75 | 285 | 3.5 | 10.4 | 0.00 | 0.00 | 0.00 | 42 | 1010.9 |
| 20260504192153 | 74 | 259 | 4.3 | 10.4 | 0.00 | 0.00 | 0.00 | 45 | 1011.0 |
| 20260504191653 | 74 | 276 | 4.3 | 12.2 | 0.00 | 0.00 | 0.00 | 43 | 1011.1 |
| 20260504191153 | 74 | 259 | 5.2 | 13.0 | 0.00 | 0.00 | 0.00 | 42 | 1011.1 |
| 20260504190917 | 74 | 234 | 6.1 | 13.0 | 0.00 | 0.00 | 0.00 | 42 | 1011.3 |
| 20260504190137 | 76 | 233 | 4.3 | 13.9 | 0.00 | 0.00 | 0.00 | 40 | 1011.3 |
| 20260504185630 | 76 | 211 | 4.3 | 13.9 | 0.00 | 0.00 | 0.00 | 43 | 1011.2 |
| 20260504185129 | 75 | 193 | 4.3 | 12.2 | 0.00 | 0.00 | 0.00 | 41 | 1011.2 |
| 20260504184629 | 75 | 178 | 4.3 | 12.2 | 0.00 | 0.00 | 0.00 | 41 | 1011.3 |
| 20260504184400 | 75 | 207 | 6.1 | 13.9 | 0.00 | 0.00 | 0.00 | 41 | 1011.3 |
| 20260504183630 | 75 | 231 | 7.0 | 14.8 | 0.00 | 0.00 | 0.00 | 40 | 1011.5 |
| 20260504183129 | 75 | 277 | 5.2 | 14.8 | 0.00 | 0.00 | 0.00 | 41 | 1011.5 |
| 20260504182629 | 75 | 194 | 4.3 | 11.3 | 0.00 | 0.00 | 0.00 | 39 | 1011.4 |
| 20260504182127 | 75 | 223 | 4.3 | 13.0 | 0.00 | 0.00 | 0.00 | 39 | 1011.5 |
| 20260504181625 | 75 | 272 | 4.3 | 13.0 | 0.00 | 0.00 | 0.00 | 38 | 1011.6 |
| 20260504181124 | 75 | 245 | 4.3 | 13.9 | 0.00 | 0.00 | 0.00 | 40 | 1011.8 |
| 20260504180854 | 75 | 290 | 5.2 | 13.9 | 0.00 | 0.00 | 0.00 | 40 | 1011.8 |
| 20260504180124 | 75 | 202 | 5.2 | 14.8 | 0.00 | 0.00 | 0.00 | 40 | 1012.0 |
| 20260504175623 | 75 | 228 | 3.5 | 14.8 | 0.00 | 0.00 | 0.00 | 40 | 1012.0 |
| 20260504175123 | 75 | 281 | 3.5 | 9.6 | 0.00 | 0.00 | 0.00 | 39 | 1012.1 |
| 20260504174615 | 74 | 304 | 5.2 | 12.2 | 0.00 | 0.00 | 0.00 | 42 | 1012.2 |
| 20260504174115 | 74 | 227 | 5.2 | 14.8 | 0.00 | 0.00 | 0.00 | 39 | 1012.3 |
| 20260504173615 | 74 | 227 | 4.3 | 14.8 | 0.00 | 0.00 | 0.00 | 39 | 1012.3 |
| 20260504173115 | 74 | 199 | 4.3 | 13.0 | 0.00 | 0.00 | 0.00 | 38 | 1012.3 |
| 20260504172615 | 74 | 142 | 4.3 | 13.0 | 0.00 | 0.00 | 0.00 | 39 | 1012.4 |
| 20260504172346 | 74 | 238 | 4.3 | 13.9 | 0.00 | 0.00 | 0.00 | 40 | 1012.5 |
| 20260504171615 | 74 | 229 | 4.3 | 13.9 | 0.00 | 0.00 | 0.00 | 42 | 1012.7 |
| 20260504171116 | 73 | 218 | 4.3 | 12.2 | 0.00 | 0.00 | 0.00 | 44 | 1012.8 |
| 20260504170846 | 73 | 236 | 3.5 | 11.3 | 0.00 | 0.00 | 0.00 | 39 | 1012.8 |
| 20260504170346 | 73 | 257 | 3.5 | 10.4 | 0.00 | 0.00 | 0.00 | 42 | 1012.8 |
| 20260504160337 | 69 | 221 | 4.3 | 13.0 | 0.00 | 0.00 | 0.00 | 43 | 1013.7 |
| 20260504150606 | 68 | 300 | 3.5 | 9.6 | 0.00 | 0.00 | 0.00 | 45 | 1014.2 |
| 20260504150105 | 68 | 218 | 2.6 | 9.6 | 0.00 | 0.00 | 0.00 | 46 | 1014.2 |
| 20260504141053 | 64 | 223 | 3.5 | 12.2 | 0.00 | 0.00 | 0.00 | 50 | 1014.2 |
| 20260504140552 | 64 | 204 | 2.6 | 11.3 | 0.00 | 0.00 | 0.00 | 49 | 1014.3 |
| 20260504140323 | 64 | 223 | 3.5 | 9.6 | 0.00 | 0.00 | 0.00 | 56 | 1014.3 |
| 20260504130446 | 57 | 190 | 0.9 | 4.3 | 0.00 | 0.00 | 0.00 | 66 | 1015.0 |
| 20260504110304 | 42 | 190 | 0.0 | 0.0 | 0.00 | 0.00 | 0.00 | 93 | 1015.5 |
| 20260504100130 | 43 | 190 | 0.0 | 0.0 | 0.00 | 0.00 | 0.00 | 89 | 1015.2 |
| 20260504081348 | 45 | 190 | 0.0 | 0.9 | 0.00 | 0.00 | 0.00 | 87 | 1015.4 |
| 20260504081113 | 45 | 190 | 0.0 | 0.0 | 0.00 | 0.00 | 0.00 | 87 | 1015.5 |
| 20260504080332 | 45 | 190 | 0.0 | 0.0 | 0.00 | 0.00 | 0.00 | 87 | 1015.4 |